Regional Weather Roundup
Issued by NWS Charleston, SC

Home | Current Version | Previous Version | Text Only | Print | Product List | Glossary On
Versions: 1 2 3 4 5 6 7 8 9 10 11 12 13 14 15 16 17 18 19 20 21 22 23 24 25 26 27 28 29 30 31 32 33 34 35 36 37 38 39 40 41 42 43 44 45 46 47 48 49 50
000
ASUS42 KCHS 281526
RWRCHS

REGIONAL WEATHER ROUNDUP
NATIONAL WEATHER SERVICE CHARLESTON SC
1100 AM EDT SAT MAR 28 2015

NOTE: "FAIR" INDICATES FEW OR NO CLOUDS BELOW 12,000 FEET WITH NO
SIGNIFICANT WEATHER AND/OR OBSTRUCTIONS TO VISIBILITY.

NOT ALL STATIONS ARE QUALITY CONTROLLED BY THE NATIONAL
WEATHER SERVICE. USE DATA WITH CAUTION...ESPECIALLY
DEWPOINT OBSERVATIONS.

SCZ027-030-031-034>040-042>050-281600-
...SOUTHEAST SOUTH CAROLINA...

CITY           SKY/WX    TMP DP  RH WIND       PRES   REMARKS
N CHARLESTON   MOSUNNY   52  33  48 NW12G17   30.08R
WATERFRONT PRK   N/A     52 N/A N/A NW7G14      N/A
MOUNT PLEASANT FAIR      52  36  54 NW12      30.08R
PINOPOLIS        N/A     50  37  62 NW8       29.99R
MONCKS CORNER  FAIR      50  34  53 N5        30.07S
SUMMERVILLE    FAIR      52  34  50 W7G16     30.09R
BEAUFORT MCAS  SUNNY     52  31  44 NW15      30.10R
BEAUFORT ARPT  FAIR      52  36  54 NW9       30.10R
HILTON HEAD IS SUNNY     52  34  50 NW8       30.11R
WALTERBORO     MOSUNNY   50  32  50 NW12      30.10R
ALLENDALE      FAIR      50  25  37 NW9G17    30.10R

...SOUTHERN MIDLANDS AND PEE DEE...

CITY           SKY/WX    TMP DP  RH WIND       PRES   REMARKS
GEORGETOWN     NOT AVBL
KINGSTREE      NOT AVBL
ORANGEBURG     MOSUNNY   49  27  42 NW8       30.08R
BARNWELL       PTSUNNY   50  32  50 NW9       30.11R
AIKEN          PTSUNNY   43  28  56 W7        30.13R
MANNING        FAIR      46  30  53 NW7       30.08R
COLUMBIA       MOSUNNY   48  23  37 N9        30.08R
SUMTER         SUNNY     48  26  43 NW12      30.05R
FLORENCE       PTSUNNY   48  29  47 N10       30.06R
MYRTLE BEACH   PTSUNNY   48  36  61 N14       30.07R
N MYRTLE BEACH PTSUNNY   47  32  56 N10G18    30.05R

$$

GAZ063-065-086>088-099>101-113>116-118-119-134>141-150-281600-
...SOUTHEAST GEORGIA...

CITY           SKY/WX    TMP DP  RH WIND       PRES   REMARKS
SAVANNAH ARPT  SUNNY     52  27  38 NW10      30.12R
HUNTER AAF     SUNNY     53  32  44 NW13      30.10R
FORT STEWART   MOSUNNY   52  30  42 NW9       30.12R
STATESBORO     MOSUNNY   50  32  49 W10G17    30.13S
SYLVANIA       SUNNY     50  31  48 NW12      30.13R
CLAXTON        FAIR      50  34  53 NW13G20   30.14R

...CSRA...CENTRAL AND FAR SOUTHEAST GEORGIA...

CITY           SKY/WX    TMP DP  RH WIND       PRES   REMARKS
THOMSON        SUNNY     48  28  45 NW7       30.16S
AUGUSTA-BUSH   SUNNY     48  26  42 NW12      30.11S
AUGUSTA-DANIEL SUNNY     47  24  40 NW9       30.11R
SWAINSBORO     FAIR      50  10  20 W14       30.14S
VIDALIA        MOSUNNY   50  34  53 W9G21     30.15S
EASTMAN        FAIR      50  33  51 NW8       30.18F
HAZLEHURST     FAIR      52  32  46 NW7       30.15S
ALMA           MOSUNNY   50  32  50 NW7       30.16R
WAYCROSS       MOSUNNY   54  37  52 NW10G17   30.17S
JESUP          FAIR      54  36  50 NW8       30.15R
BAXLEY         FAIR      52  34  50 W7        30.15S
BRUNSWICK      MOSUNNY   54  32  43 W12G20    30.15S
SAINT SIMONS   SUNNY     53  32  44 NW8       30.14S

$$

SCZ027-028-034-036>038-045-046-048>050-GAZ119-141-281600-
...LAKE AND SUPPLEMENTAL COASTAL OBSERVATIONS...

STATION/POSITION TIME  TEMP    WIND        PRES    WAVE   SWELL
                       AIR SEA DIR/SP/G            HT/PER HT/PER/DIR
                 (UTC) (F)     (DEG/KT/KT) (MB)    (FT/S) (FT/S/D)
UPR LAKE MARION  NOT AVBL
WINYAH BAY       1400   47     340/  9     1016.0
LAKE MURRAY      1400   43     340/  3/ 11 1017.9R
ACE BASIN NERRS  1400          350/  4     1018.0R
FORT PULASKI     1400   48 61  320/ 13/ 15 1019.7R
SAPELO ISLAND    1500   52     290/ 10     1020.0S

$$

ANZ835-935-AMZ111-154-330-350-352-354-370-450-454-472-281600-
...C-MAN AND BUOY OBSERVATIONS...

STATION/POSITION TIME  TEMP    WIND        PRES    WAVE   SWELL
                       AIR SEA DIR/SP/G            HT/PER HT/PER/DIR
                 (UTC) (F)     (DEG/KT/KT) (MB)    (FT/S) (FT/S/D)
BUOY 41004       1450   51 68  310/ 14/ 19 1017.6R   5/ 6   3/ 7
BUOY 41008       1450   49 60  300/ 12/ 16 1020.1R   3/ 4   2/100/ 8
FOLLY BEACH CMAN 1500   51     330/  6/  9 1018.4R
CAPERS NEARSHORE NOT AVBL
FRIPP NEARSHORE  1400   49     340/ 12/ 14 1018.1R


STATION/POSITION TIME  TEMP    WIND        PRES    WAVE   SWELL
                       AIR SEA DIR/SP/G            HT/PER HT/PER/DIR
                 (UTC) (F)     (DEG/KT/KT) (MB)    (FT/S) (FT/S/D)
5E ST. MARYS GA  1421      61                N/A     3/ 3
FRYING PAN BUOY  1450   48 64  340/ 14/ 17 1016.9R   5/ 5   3/140/ 9
BUOY 41025       NOT AVBL
CAPE LOOKOUT NC  1500   45     330/ 10/ 14 1015.4R
BUOY 41002       1450   61 68  300/ 23/ 29 1014.1R  14/ 9
BUOY 41010       1420   65 75  310/ 19/ 23 1017.9R
ST AUGUSTINE FL  1500   53 59  330/ 16/ 19 1021.2S


$$


USA.gov is the U.S. government's official web portal to all federal, state and local government web resources and services.